• In Belarus
  • List of Countries
  • For 7 days
  • Water Temperature
  • Weather Map
  • Weather Widgets
  • user-avatar
    Login

    Hourly Weather Neuquén

    Today, 20 September, Friday

    Time Temperature Precipitation Wind Pressure Humidity
    00:00 +6°C° 0 mm 8 mps 736 mmHg 46%
    01:00 +5°C° 0 mm 8 mps 736 mmHg 47%
    02:00 +5°C° 0 mm 8 mps 736 mmHg 47%
    03:00 +5°C° 0 mm 7 mps 736 mmHg 47%
    04:00 +4°C° 0 mm 7 mps 736 mmHg 47%
    05:00 +5°C° 0 mm 8 mps 736 mmHg 45%
    06:00 +6°C° 0 mm 9 mps 736 mmHg 43%
    07:00 +6°C° 0 mm 10 mps 737 mmHg 40%
    08:00 +8°C° 0 mm 10 mps 736 mmHg 36%
    09:00 +11°C° 0 mm 10 mps 736 mmHg 31%
    10:00 +12°C° 0 mm 11 mps 736 mmHg 26%
    11:00 +14°C° 0 mm 10 mps 736 mmHg 23%
    12:00 +16°C° 0 mm 10 mps 735 mmHg 19%
    13:00 +17°C° 0 mm 10 mps 735 mmHg 16%
    14:00 +17°C° 0 mm 10 mps 734 mmHg 16%
    15:00 +17°C° 0 mm 10 mps 734 mmHg 16%
    16:00 +17°C° 0 mm 10 mps 734 mmHg 17%
    17:00 +14°C° 0 mm 10 mps 734 mmHg 21%
    18:00 +13°C° 0 mm 10 mps 734 mmHg 25%
    19:00 +11°C° 0 mm 10 mps 735 mmHg 29%
    20:00 +9°C° 0 mm 10 mps 735 mmHg 32%
    21:00 +8°C° 0 mm 10 mps 736 mmHg 35%
    22:00 +8°C° 0 mm 10 mps 736 mmHg 38%
    23:00 +7°C° 0 mm 9 mps 736 mmHg 39%

    Tomorrow, 21 September, Saturday

    Time Temperature Precipitation Wind Pressure Humidity
    00:00 +7°C° 0 mm 8 mps 736 mmHg 40%
    01:00 +8°C° 0 mm 6 mps 736 mmHg 41%
    02:00 +8°C° 0 mm 6 mps 736 mmHg 41%
    03:00 +8°C° 0 mm 6 mps 736 mmHg 41%
    04:00 +8°C° 0 mm 5 mps 736 mmHg 42%
    05:00 +8°C° 0 mm 6 mps 737 mmHg 40%
    06:00 +9°C° 0 mm 7 mps 737 mmHg 37%
    07:00 +10°C° 0 mm 8 mps 738 mmHg 35%
    08:00 +11°C° 0 mm 8 mps 738 mmHg 33%
    09:00 +13°C° 0 mm 8 mps 739 mmHg 30%
    10:00 +15°C° 0 mm 8 mps 739 mmHg 28%
    11:00 +16°C° 0 mm 8 mps 738 mmHg 26%
    12:00 +16°C° 0 mm 7 mps 738 mmHg 24%
    13:00 +17°C° 0 mm 7 mps 738 mmHg 22%
    14:00 +17°C° 0 mm 6 mps 737 mmHg 21%
    15:00 +17°C° 0 mm 5 mps 737 mmHg 21%
    16:00 +17°C° 0 mm 5 mps 737 mmHg 20%
    17:00 +17°C° 0 mm 4 mps 737 mmHg 23%
    18:00 +14°C° 0 mm 3 mps 738 mmHg 27%
    19:00 +14°C° 0 mm 2 mps 738 mmHg 30%
    20:00 +13°C° 0 mm 2 mps 738 mmHg 32%
    21:00 +12°C° 0 mm 2 mps 739 mmHg 33%
    22:00 +12°C° 0 mm 2 mps 739 mmHg 35%
    23:00 +12°C° 0 mm 2 mps 739 mmHg 35%

    Day after tomorrow, 22 September, Sunday

    Time Temperature Precipitation Wind Pressure Humidity
    00:00 +10°C° 0 mm 2 mps 739 mmHg 35%
    01:00 +10°C° 0 mm 3 mps 739 mmHg 35%
    02:00 +10°C° 0 mm 3 mps 739 mmHg 35%
    03:00 +9°C° 0 mm 3 mps 739 mmHg 36%
    04:00 +9°C° 0 mm 3 mps 738 mmHg 36%
    05:00 +10°C° 0 mm 3 mps 738 mmHg 34%
    06:00 +11°C° 0 mm 4 mps 739 mmHg 32%
    07:00 +12°C° 0 mm 5 mps 739 mmHg 29%
    08:00 +14°C° 0 mm 7 mps 738 mmHg 27%
    09:00 +17°C° 0 mm 8 mps 738 mmHg 24%
    10:00 +19°C° 0 mm 10 mps 738 mmHg 22%
    11:00 +21°C° 0 mm 9 mps 737 mmHg 20%
    12:00 +22°C° 0 mm 9 mps 736 mmHg 19%
    13:00 +23°C° 0 mm 9 mps 735 mmHg 18%
    14:00 +23°C° 0 mm 8 mps 735 mmHg 18%
    15:00 +24°C° 0 mm 7 mps 734 mmHg 17%
    16:00 +24°C° 0 mm 6 mps 734 mmHg 17%
    17:00 +22°C° 0 mm 6 mps 734 mmHg 19%
    18:00 +20°C° 0 mm 5 mps 734 mmHg 21%
    19:00 +19°C° 0 mm 5 mps 734 mmHg 23%
    20:00 +17°C° 0 mm 5 mps 734 mmHg 25%
    21:00 +16°C° 0 mm 5 mps 734 mmHg 27%
    22:00 +15°C° 0 mm 5 mps 734 mmHg 28%
    23:00 +14°C° 0 mm 5 mps 735 mmHg 30%

    23 September, Monday

    Time Temperature Precipitation Wind Pressure Humidity
    00:00 +14°C° 0 mm 5 mps 735 mmHg 32%
    01:00 +13°C° 0 mm 5 mps 735 mmHg 35%
    02:00 +13°C° 0 mm 5 mps 735 mmHg 36%
    03:00 +12°C° 0 mm 5 mps 736 mmHg 38%
    04:00 +12°C° 0 mm 5 mps 736 mmHg 40%
    05:00 +13°C° 0 mm 5 mps 737 mmHg 37%
    06:00 +13°C° 0 mm 5 mps 738 mmHg 35%
    07:00 +14°C° 0 mm 5 mps 738 mmHg 33%
    08:00 +16°C° 0 mm 5 mps 739 mmHg 28%
    09:00 +19°C° 0 mm 4 mps 740 mmHg 24%
    10:00 +21°C° 0 mm 4 mps 740 mmHg 20%
    11:00 +21°C° 0 mm 3 mps 740 mmHg 19%
    12:00 +22°C° 0 mm 3 mps 740 mmHg 19%
    13:00 +23°C° 0 mm 2 mps 740 mmHg 18%
    14:00 +24°C° 0 mm 3 mps 740 mmHg 18%
    15:00 +24°C° 0 mm 3 mps 739 mmHg 19%
    16:00 +23°C° 0 mm 4 mps 739 mmHg 19%
    17:00 +21°C° 0 mm 4 mps 740 mmHg 22%
    18:00 +20°C° 0 mm 3 mps 740 mmHg 24%
    19:00 +18°C° 0 mm 3 mps 740 mmHg 27%
    20:00 +18°C° 0 mm 3 mps 740 mmHg 28%
    21:00 +17°C° 0 mm 2 mps 740 mmHg 29%
    22:00 +16°C° 0 mm 2 mps 740 mmHg 30%
    23:00 +15°C° 0 mm 1 mps 740 mmHg 32%

    24 September, Tuesday

    Time Temperature Precipitation Wind Pressure Humidity
    00:00 +14°C° 0 mm 1 mps 740 mmHg 33%
    01:00 +14°C° 0 mm 1 mps 740 mmHg 35%
    02:00 +13°C° 0 mm 1 mps 740 mmHg 36%
    03:00 +13°C° 0 mm 1 mps 740 mmHg 37%
    04:00 +11°C° 0 mm 0 mps 740 mmHg 38%
    05:00 +14°C° 0 mm 1 mps 740 mmHg 34%
    06:00 +16°C° 0 mm 1 mps 740 mmHg 30%
    07:00 +19°C° 0 mm 1 mps 740 mmHg 25%
    08:00 +21°C° 0 mm 1 mps 740 mmHg 23%
    09:00 +21°C° 0 mm 2 mps 740 mmHg 21%
    10:00 +24°C° 0 mm 2 mps 740 mmHg 18%
    11:00 +25°C° 0 mm 2 mps 740 mmHg 17%
    12:00 +26°C° 0 mm 2 mps 739 mmHg 15%
    13:00 +27°C° 0 mm 3 mps 739 mmHg 14%
    14:00 +27°C° 0 mm 3 mps 738 mmHg 14%
    15:00 +28°C° 0 mm 3 mps 737 mmHg 13%
    16:00 +28°C° 0 mm 3 mps 737 mmHg 13%
    17:00 +26°C° 0 mm 3 mps 737 mmHg 15%
    18:00 +25°C° 0 mm 3 mps 737 mmHg 17%
    19:00 +22°C° 0 mm 4 mps 738 mmHg 19%
    20:00 +21°C° 0 mm 4 mps 737 mmHg 20%
    21:00 +21°C° 0 mm 4 mps 737 mmHg 22%
    22:00 +20°C° 0 mm 4 mps 737 mmHg 23%
    23:00 +19°C° 0 mm 4 mps 737 mmHg 24%

    25 September, Wednesday

    Time Temperature Precipitation Wind Pressure Humidity
    00:00 +19°C° 0 mm 4 mps 737 mmHg 25%
    01:00 +18°C° 0 mm 4 mps 737 mmHg 27%
    02:00 +18°C° 0 mm 4 mps 737 mmHg 28%
    03:00 +16°C° 0 mm 5 mps 737 mmHg 29%
    04:00 +16°C° 0 mm 5 mps 736 mmHg 30%
    05:00 +17°C° 0 mm 5 mps 736 mmHg 29%
    06:00 +17°C° 0 mm 6 mps 736 mmHg 28%
    07:00 +19°C° 0 mm 6 mps 736 mmHg 27%
    08:00 +22°C° 0 mm 7 mps 736 mmHg 23%
    09:00 +24°C° 0 mm 7 mps 736 mmHg 20%
    10:00 +27°C° 0 mm 7 mps 736 mmHg 17%
    11:00 +29°C° 0 mm 8 mps 736 mmHg 16%
    12:00 +31°C° 0 mm 8 mps 735 mmHg 15%
    13:00 +32°C° 0 mm 8 mps 734 mmHg 14%
    14:00 +32°C° 0 mm 8 mps 733 mmHg 13%
    15:00 +32°C° 0 mm 7 mps 733 mmHg 13%
    16:00 +32°C° 0 mm 7 mps 732 mmHg 13%
    17:00 +30°C° 0 mm 6 mps 732 mmHg 15%
    18:00 +28°C° 0 mm 5 mps 732 mmHg 17%
    19:00 +26°C° 0 mm 5 mps 732 mmHg 19%
    20:00 +26°C° 0 mm 5 mps 732 mmHg 20%
    21:00 +24°C° 0 mm 6 mps 732 mmHg 20%
    22:00 +24°C° 0 mm 6 mps 732 mmHg 20%
    23:00 +23°C° 0 mm 7 mps 731 mmHg 22%
    Show more